CW1035 Weather Reports


Display with metric or nautical units.
time (UTC)temp
F
wind
direction
speed
MPH
gust
MPH
rain 1hr
in
rain 24hr
in
rain mn
in
humidity
%
barometer
mb
20260504000204 74 257 0.0 11.0 0.00 0.00 0.00 41 1011.8
20260503235703 74 306 1.0 11.0 0.00 0.00 0.00 39 1011.8
20260503235134 74 282 6.0 8.0 0.00 0.00 0.00 39 1011.9
20260503234703 74 255 5.0 9.0 0.00 0.00 0.00 40 1011.9
20260503234203 74 296 3.0 9.0 0.00 0.00 0.00 40 1012.0
20260503233703 74 309 6.0 10.0 0.00 0.00 0.00 40 1012.0
20260503233203 74 321 6.0 10.0 0.00 0.00 0.00 40 1012.1
20260503232703 73 270 3.0 11.0 0.00 0.00 0.00 42 1012.1
20260503232202 73 264 6.0 11.0 0.00 0.00 0.00 41 1012.3
20260503231702 73 277 1.0 8.0 0.00 0.00 0.00 41 1012.3
20260503231202 74 276 7.0 9.0 0.00 0.00 0.00 41 1012.4
20260503230702 73 246 3.0 12.0 0.00 0.00 0.00 42 1012.4
20260503230203 73 257 3.0 12.0 0.00 0.00 0.00 41 1012.5
20260503225703 74 278 6.0 11.0 0.00 0.00 0.00 40 1012.5
20260503225203 74 338 0.0 11.0 0.00 0.00 0.00 40 1012.6
20260503224202 73 277 1.0 10.0 0.00 0.00 0.00 40 1012.7
20260503223702 73 302 3.0 10.0 0.00 0.00 0.00 40 1012.8
20260503223202 73 291 8.0 9.0 0.00 0.00 0.00 39 1012.9
20260503222702 73 240 4.0 9.0 0.00 0.00 0.00 40 1013.0
20260503222201 72 319 4.0 10.0 0.00 0.00 0.00 41 1013.0
20260503221201 72 37 4.0 9.0 0.00 0.00 0.00 43 1013.2
20260503220701 72 271 4.0 8.0 0.00 0.00 0.00 45 1013.3
20260503220202 71 315 1.0 10.0 0.00 0.00 0.00 46 1013.3
20260503215701 71 292 4.0 10.0 0.00 0.00 0.00 46 1013.3
20260503215201 71 292 5.0 10.0 0.00 0.00 0.00 46 1013.4
20260503214701 71 272 9.0 11.0 0.00 0.00 0.00 46 1013.4
20260503213200 71 290 5.0 9.0 0.00 0.00 0.00 51 1013.6
20260503212201 70 274 3.0 11.0 0.00 0.00 0.00 54 1013.7
20260503211700 70 300 3.0 11.0 0.00 0.00 0.00 54 1013.7
20260503211200 69 264 3.0 10.0 0.00 0.00 0.00 55 1013.7
20260503210700 69 280 4.0 8.0 0.00 0.00 0.00 56 1013.7
20260503210200 69 255 4.0 10.0 0.00 0.00 0.00 56 1013.9
20260503205700 69 288 3.0 10.0 0.00 0.00 0.00 55 1013.9
20260503204700 69 284 2.0 9.0 0.00 0.00 0.00 55 1013.9
20260503204200 69 335 2.0 9.0 0.00 0.00 0.00 54 1014.0
20260503203700 68 308 7.0 8.0 0.00 0.00 0.00 54 1013.9
20260503203200 68 340 1.0 8.0 0.00 0.00 0.00 53 1014.0
20260503201700 68 347 4.0 10.0 0.00 0.00 0.00 55 1014.0
20260503201159 68 319 7.0 9.0 0.00 0.00 0.00 54 1014.0
20260503200659 68 283 2.0 9.0 0.00 0.00 0.00 55 1014.2
20260503200159 69 295 5.0 8.0 0.00 0.00 0.00 55 1014.2
20260503195659 68 278 3.0 7.0 0.00 0.00 0.00 56 1014.4
20260503195159 68 269 4.0 9.0 0.00 0.00 0.00 57 1014.3
20260503194659 67 303 2.0 9.0 0.00 0.00 0.00 58 1014.5
20260503194158 67 32 4.0 9.0 0.00 0.00 0.00 59 1014.6
20260503193658 66 285 6.0 10.0 0.00 0.00 0.00 59 1014.6
20260503192158 66 347 6.0 8.0 0.00 0.00 0.00 59 1014.8
20260503191659 66 11 4.0 9.0 0.00 0.00 0.00 60 1014.8
20260503190658 66 34 3.0 8.0 0.00 0.00 0.00 61 1014.9
20260503190158 66 317 1.0 8.0 0.00 0.00 0.00 60 1014.9
20260503185158 66 304 5.0 10.0 0.00 0.00 0.00 60 1015.0
20260503183157 65 300 5.0 10.0 0.00 0.00 0.00 62 1015.1
20260503182658 65 284 7.0 10.0 0.00 0.00 0.00 61 1015.2
20260503182158 65 264 2.0 9.0 0.00 0.00 0.00 63 1015.2
20260503181657 65 322 4.0 10.0 0.00 0.00 0.00 62 1015.3
20260503181157 64 247 0.0 10.0 0.00 0.00 0.00 65 1015.3
20260503180657 64 276 7.0 10.0 0.00 0.00 0.00 63 1015.4
20260503180157 64 301 2.0 11.0 0.00 0.00 0.00 64 1015.4
20260503175657 64 283 3.0 11.0 0.00 0.00 0.00 64 1015.5
20260503175156 64 270 5.0 11.0 0.00 0.00 0.00 66 1015.5
20260503174657 63 271 6.0 11.0 0.00 0.00 0.00 67 1015.5
20260503174156 63 330 3.0 11.0 0.00 0.00 0.00 67 1015.6
20260503173656 63 271 6.0 12.0 0.00 0.00 0.00 66 1015.6
20260503173157 62 338 2.0 12.0 0.00 0.00 0.00 68 1015.6
20260503172656 62 223 2.0 10.0 0.00 0.00 0.00 69 1015.6
20260503172156 62 262 7.0 11.0 0.00 0.00 0.00 68 1015.6
20260503171656 62 295 2.0 11.0 0.00 0.00 0.00 67 1015.7
20260503171156 62 288 3.0 10.0 0.00 0.00 0.00 68 1015.8
20260503170656 62 274 5.0 10.0 0.00 0.00 0.00 67 1015.8
20260503170156 62 293 4.0 10.0 0.00 0.00 0.00 68 1015.8
20260503160155 62 274 7.0 9.0 0.00 0.00 0.00 69 1015.9
20260503150654 60 258 0.0 8.0 0.00 0.00 0.00 71 1016.0
20260503150154 60 288 5.0 11.0 0.00 0.00 0.00 70 1016.1
20260503140153 60 300 5.0 8.0 0.00 0.00 0.00 69 1015.6
20260503131152 59 244 4.0 7.0 0.00 0.00 0.00 70 1015.5
20260503130652 59 253 4.0 5.0 0.00 0.00 0.00 69 1015.5
20260503130152 59 265 2.0 4.0 0.00 0.00 0.00 69 1015.6
20260503110650 59 283 2.0 6.0 0.00 0.00 0.00 67 1015.7
20260503110149 59 264 3.0 6.0 0.00 0.00 0.00 67 1015.8
20260503100148 57 293 4.0 4.0 0.00 0.00 0.00 71 1015.6
20260503090148 55 253 3.0 5.0 0.00 0.00 0.00 78 1015.6
20260503080646 55 278 2.0 7.0 0.00 0.00 0.00 78 1015.5
20260503080147 55 273 3.0 8.0 0.00 0.00 0.00 77 1015.5
20260503072646 56 291 4.0 7.0 0.00 0.00 0.00 75 1015.4
20260503072146 57 252 5.0 7.0 0.00 0.00 0.00 75 1015.4
20260503071646 57 281 2.0 6.0 0.00 0.00 0.00 74 1015.4
20260503071146 57 278 4.0 6.0 0.00 0.00 0.00 73 1015.4
20260503070646 58 236 2.0 7.0 0.00 0.00 0.00 73 1015.4
20260503070146 58 289 6.0 7.0 0.00 0.00 0.00 71 1015.4
20260503060144 64 271 0.0 5.0 0.00 0.00 0.00 54 1015.3
20260503054144 64 277 2.0 5.0 0.00 0.00 0.00 55 1015.2
20260503053644 64 277 4.0 5.0 0.00 0.00 0.00 54 1015.2
20260503052644 65 244 4.0 4.0 0.00 0.00 0.00 54 1015.3
20260503052144 65 252 2.0 4.0 0.00 0.00 0.00 54 1015.3
20260503051644 65 264 2.0 4.0 0.00 0.00 0.00 53 1015.3
20260503051144 65 297 1.0 5.0 0.00 0.00 0.00 53 1015.3
20260503050644 65 289 3.0 5.0 0.00 0.00 0.00 54 1015.3
20260503050144 65 301 1.0 6.0 0.00 0.00 0.00 53 1015.2
20260503045643 66 284 1.0 7.0 0.00 0.00 0.00 52 1015.3
20260503045143 66 295 2.0 8.0 0.00 0.00 0.00 53 1015.2
20260503044643 65 310 4.0 8.0 0.00 0.00 0.00 53 1015.2
20260503044143 65 262 2.0 7.0 0.00 0.00 0.00 54 1015.2
20260503043643 65 260 2.0 7.0 0.00 0.00 0.00 53 1015.1
20260503043143 65 283 3.0 7.0 0.00 0.00 0.00 53 1015.1
20260503042643 65 271 2.0 6.0 0.00 0.00 0.00 53 1015.0
20260503042143 65 250 1.0 5.0 0.00 0.00 0.00 53 1015.0
20260503041143 66 272 1.0 3.0 0.00 0.00 0.00 53 1015.0
20260503040642 66 250 0.0 4.0 0.00 0.00 0.00 52 1015.0
20260503035143 66 249 2.0 6.0 0.00 0.00 0.00 51 1014.6
20260503034642 66 271 2.0 7.0 0.00 0.00 0.00 52 1014.6
20260503034142 66 285 5.0 7.0 0.00 0.00 0.00 51 1014.6
20260503033642 66 268 2.0 6.0 0.00 0.00 0.00 52 1014.5
20260503032641 67 297 4.0 6.0 0.00 0.00 0.00 52 1014.5
20260503032142 67 261 2.0 6.0 0.00 0.00 0.00 52 1014.4
20260503031642 67 278 2.0 6.0 0.00 0.00 0.00 52 1014.5
20260503031142 68 280 4.0 6.0 0.00 0.00 0.00 52 1014.5
20260503030141 68 280 0.0 5.0 0.00 0.00 0.00 52 1014.5
20260503025642 68 287 0.0 5.0 0.00 0.00 0.00 51 1014.4
20260503025141 69 276 3.0 5.0 0.00 0.00 0.00 50 1014.5
20260503024641 69 252 0.0 4.0 0.00 0.00 0.00 50 1014.4
20260503024141 69 276 2.0 7.0 0.00 0.00 0.00 50 1014.4
20260503023641 69 276 2.0 7.0 0.00 0.00 0.00 50 1014.5
20260503023141 69 266 2.0 8.0 0.00 0.00 0.00 50 1014.5
20260503022641 70 260 2.0 8.0 0.00 0.00 0.00 49 1014.4
20260503021141 70 276 2.0 7.0 0.00 0.00 0.00 48 1014.5
20260503020640 70 283 6.0 7.0 0.00 0.00 0.00 47 1014.5
20260503020140 70 257 5.0 8.0 0.00 0.00 0.00 47 1014.6
20260503015640 70 262 2.0 8.0 0.00 0.00 0.00 47 1014.6
20260503015140 70 315 0.0 7.0 0.00 0.00 0.00 48 1014.6
20260503014640 70 285 1.0 9.0 0.00 0.00 0.00 48 1014.6
20260503014140 70 303 5.0 9.0 0.00 0.00 0.00 49 1014.6
20260503013640 70 246 3.0 11.0 0.00 0.00 0.00 49 1014.6
20260503013139 70 268 6.0 11.0 0.00 0.00 0.00 49 1014.7
20260503012640 70 300 7.0 9.0 0.00 0.00 0.00 48 1014.7
20260503012139 70 306 4.0 8.0 0.00 0.00 0.00 48 1014.8
20260503011639 70 257 3.0 10.0 0.00 0.00 0.00 48 1014.8
20260503011139 70 274 3.0 10.0 0.00 0.00 0.00 49 1014.9
20260503010639 70 263 3.0 10.0 0.00 0.00 0.00 48 1014.9
20260503010139 70 264 0.0 10.0 0.00 0.00 0.00 49 1014.9
20260503005640 70 330 6.0 8.0 0.00 0.00 0.00 49 1015.0
20260503005139 70 272 6.0 8.0 0.00 0.00 0.00 49 1014.9
20260503004639 70 266 3.0 8.0 0.00 0.00 0.00 49 1014.9
20260503004139 70 345 1.0 11.0 0.00 0.00 0.00 50 1015.1
20260503003639 70 261 6.0 11.0 0.00 0.00 0.00 50 1015.0
20260503002639 70 300 4.0 12.0 0.00 0.00 0.00 51 1015.0
20260503002138 70 266 5.0 12.0 0.00 0.00 0.00 51 1015.1
20260503001639 70 264 3.0 10.0 0.00 0.00 0.00 51 1015.0
20260503001138 69 311 2.0 10.0 0.00 0.00 0.00 52 1015.1
20260503000639 70 281 3.0 9.0 0.00 0.00 0.00 51 1015.1